{"data":{"norad_id":60211,"intl_designator":"2024-126A","name":"TIANHUI 5C","alt_names":[],"object_type":"PAYLOAD","status":"ACTIVE","operator":null,"country":"PRC","launch_date":"2024-07-04","launch_site_code":"TAISC","launch_vehicle":null,"mission":null,"orbit_class":"UNKNOWN","rcs_meters":null,"size_class":null,"mass_kg":null,"dimensions":null,"purposes":[],"wikipedia_slug":null,"has_3d_model":false,"image_url":null,"decayed_at":null,"tle_current":{"epoch":"2026-05-24T10:08:09.579840Z","epoch_age_seconds":118175,"freshness":"FRESH","line1":"1 60211U 24126A   26144.42233310  .00000301  00000+0  39072-4 0  9998","line2":"2 60211  97.8222 152.3155 0001676  96.6966 263.4441 14.87573038102357","mean_motion":14.87573038,"eccentricity":0.0001676,"inclination_deg":97.8222,"raan_deg":152.3155,"arg_perigee_deg":96.6966,"mean_anomaly_deg":263.4441,"bstar":3.9072e-5,"rev_number":10235,"period_min":96.801969598484,"perigee_km":604.35074223741,"apogee_km":606.69166446717,"semimajor_km":6983.6582033523,"source":"CELESTRAK","updated_at":"2026-05-25T13:38:01.928173Z"}}}